Time,TemperatureF,DewpointF,PressureIn,WindDirection,WindDirectionDegrees,WindSpeedMPH,WindSpeedGustMPH,Humidity,HourlyPrecipIn,Conditions,Clouds,dailyrainin,SoftwareType,DateUTC
2013-04-08 00:01:00,68.4,56.1,29.98,East,90,1.0,2.0,42,0.00,,,0.00,meteohub,2013-04-08 04:01:00,
2013-04-08 00:02:00,68.4,56.1,29.98,East,90,1.0,2.0,42,0.00,,,0.00,meteohub,2013-04-08 04:02:00,
2013-04-08 00:03:00,68.4,56.1,29.98,East,90,1.0,2.0,42,0.00,,,0.00,meteohub,2013-04-08 04:03:00,
2013-04-08 00:07:00,68.2,56.1,29.98,East,90,0.0,1.0,42,0.00,,,0.00,meteohub,2013-04-08 04:07:00,
2013-04-08 00:12:00,67.8,56.1,29.98,East,90,0.0,1.0,42,0.00,,,0.00,meteohub,2013-04-08 04:12:00,
2013-04-08 00:17:00,67.3,55.9,29.98,East,90,0.0,1.0,42,0.00,,,0.00,meteohub,2013-04-08 04:17:00,
2013-04-08 00:22:00,66.9,55.9,29.98,East,90,0.0,0.0,42,0.00,,,0.00,meteohub,2013-04-08 04:22:00,
2013-04-08 00:27:00,66.6,56.5,29.98,East,90,1.0,0.0,43,0.00,,,0.00,meteohub,2013-04-08 04:27:00,
2013-04-08 00:32:00,66.6,56.3,29.98,East,90,0.0,1.0,43,0.00,,,0.00,meteohub,2013-04-08 04:32:00,
2013-04-08 00:38:00,66.6,56.3,29.97,East,90,1.0,1.0,43,0.00,,,0.00,meteohub,2013-04-08 04:38:00,
2013-04-08 00:43:00,66.9,56.3,29.98,East,90,1.0,1.0,43,0.00,,,0.00,meteohub,2013-04-08 04:43:00,
2013-04-08 00:48:00,67.1,56.1,29.97,East,90,1.0,1.0,43,0.00,,,0.00,meteohub,2013-04-08 04:48:00,
2013-04-08 00:54:00,67.1,56.1,29.97,East,90,1.0,1.0,43,0.00,,,0.00,meteohub,2013-04-08 04:54:00,
2013-04-08 00:59:00,67.1,56.1,29.97,East,90,1.0,1.0,43,0.00,,,0.00,meteohub,2013-04-08 04:59:00,
2013-04-08 01:04:00,66.9,56.1,29.97,East,90,1.0,2.0,43,0.00,,,0.00,meteohub,2013-04-08 05:04:00,
2013-04-08 01:10:00,66.9,55.9,29.97,East,90,1.0,2.0,43,0.00,,,0.00,meteohub,2013-04-08 05:10:00,
2013-04-08 01:15:00,66.7,55.9,29.96,East,90,0.0,2.0,43,0.00,,,0.00,meteohub,2013-04-08 05:15:00,
2013-04-08 01:20:00,66.7,55.9,29.96,East,90,0.0,1.0,43,0.00,,,0.00,meteohub,2013-04-08 05:20:00,
2013-04-08 01:25:00,66.9,55.8,29.96,East,90,0.0,1.0,43,0.00,,,0.00,meteohub,2013-04-08 05:25:00,
2013-04-08 01:30:00,66.7,55.8,29.96,East,90,0.0,1.0,43,0.00,,,0.00,meteohub,2013-04-08 05:30:00,
2013-04-08 01:35:00,66.4,56.3,29.96,NE,45,0.0,1.0,44,0.00,,,0.00,meteohub,2013-04-08 05:35:00,
2013-04-08 01:41:00,65.8,56.1,29.96,North,0,0.0,1.0,44,0.00,,,0.00,meteohub,2013-04-08 05:41:00,
2013-04-08 01:46:00,65.3,56.1,29.96,North,0,1.0,1.0,44,0.00,,,0.00,meteohub,2013-04-08 05:46:00,
2013-04-08 01:51:00,64.9,56.1,29.96,North,0,0.0,1.0,44,0.00,,,0.00,meteohub,2013-04-08 05:51:00,
2013-04-08 01:56:00,64.8,56.1,29.96,North,0,0.0,1.0,44,0.00,,,0.00,meteohub,2013-04-08 05:56:00,
2013-04-08 02:01:00,64.6,55.9,29.95,North,0,0.0,1.0,44,0.00,,,0.00,meteohub,2013-04-08 06:01:00,
2013-04-08 02:07:00,64.2,55.9,29.95,North,0,0.0,1.0,44,0.00,,,0.00,meteohub,2013-04-08 06:07:00,
2013-04-08 02:12:00,63.9,55.9,29.95,North,0,0.0,0.0,44,0.00,,,0.00,meteohub,2013-04-08 06:12:00,
2013-04-08 02:17:00,64.0,55.9,29.94,North,0,0.0,0.0,44,0.00,,,0.00,meteohub,2013-04-08 06:17:00,
2013-04-08 02:22:00,64.0,55.9,29.94,North,0,0.0,0.0,44,0.00,,,0.00,meteohub,2013-04-08 06:22:00,
2013-04-08 02:27:00,63.9,55.9,29.95,North,0,1.0,1.0,44,0.00,,,0.00,meteohub,2013-04-08 06:27:00,
2013-04-08 02:32:00,63.7,55.8,29.95,North,0,0.0,1.0,44,0.00,,,0.00,meteohub,2013-04-08 06:32:00,
2013-04-08 02:37:00,63.7,55.8,29.94,North,0,0.0,1.0,44,0.00,,,0.00,meteohub,2013-04-08 06:37:00,
2013-04-08 02:42:00,63.3,55.8,29.94,North,0,0.0,1.0,44,0.00,,,0.00,meteohub,2013-04-08 06:42:00,
2013-04-08 02:47:00,63.1,55.8,29.94,North,0,0.0,0.0,44,0.00,,,0.00,meteohub,2013-04-08 06:47:00,
2013-04-08 02:52:00,63.1,55.6,29.94,North,0,0.0,1.0,44,0.00,,,0.00,meteohub,2013-04-08 06:52:00,
2013-04-08 02:57:00,63.1,55.6,29.94,North,0,0.0,1.0,44,0.00,,,0.00,meteohub,2013-04-08 06:57:00,
2013-04-08 03:02:00,63.0,55.6,29.94,North,0,0.0,1.0,44,0.00,,,0.00,meteohub,2013-04-08 07:02:00,
2013-04-08 03:07:00,63.0,55.6,29.94,North,0,0.0,1.0,44,0.00,,,0.00,meteohub,2013-04-08 07:07:00,
2013-04-08 03:12:00,62.8,55.4,29.94,North,0,0.0,1.0,44,0.00,,,0.00,meteohub,2013-04-08 07:12:00,
2013-04-08 03:17:00,62.6,55.4,29.94,North,0,0.0,0.0,44,0.00,,,0.00,meteohub,2013-04-08 07:17:00,
2013-04-08 03:23:00,62.4,55.9,29.94,North,0,1.0,0.0,45,0.00,,,0.00,meteohub,2013-04-08 07:23:00,
2013-04-08 03:28:00,62.4,55.4,29.94,North,0,0.0,1.0,44,0.00,,,0.00,meteohub,2013-04-08 07:28:00,
2013-04-08 03:33:00,62.4,55.4,29.94,North,0,0.0,1.0,44,0.00,,,0.00,meteohub,2013-04-08 07:33:00,
2013-04-08 03:39:00,62.4,55.2,29.94,North,0,0.0,1.0,44,0.00,,,0.00,meteohub,2013-04-08 07:39:00,
2013-04-08 03:44:00,62.4,55.2,29.94,North,0,0.0,0.0,44,0.00,,,0.00,meteohub,2013-04-08 07:44:00,
2013-04-08 03:49:00,62.4,55.2,29.94,North,0,0.0,1.0,44,0.00,,,0.00,meteohub,2013-04-08 07:49:00,
2013-04-08 03:54:00,62.4,55.2,29.94,North,0,0.0,1.0,44,0.00,,,0.00,meteohub,2013-04-08 07:54:00,
2013-04-08 04:00:00,62.4,55.6,29.94,North,0,0.0,1.0,45,0.00,,,0.00,meteohub,2013-04-08 08:00:00,
2013-04-08 04:05:00,62.4,55.0,29.94,North,0,0.0,1.0,44,0.00,,,0.00,meteohub,2013-04-08 08:05:00,
2013-04-08 04:10:00,62.1,55.6,29.94,North,0,0.0,1.0,45,0.00,,,0.00,meteohub,2013-04-08 08:10:00,
2013-04-08 04:15:00,62.1,55.0,29.94,North,0,0.0,1.0,44,0.00,,,0.00,meteohub,2013-04-08 08:15:00,
2013-04-08 04:20:00,62.2,55.6,29.93,North,0,0.0,1.0,45,0.00,,,0.00,meteohub,2013-04-08 08:20:00,
2013-04-08 04:25:00,62.2,54.9,29.93,North,0,0.0,0.0,44,0.00,,,0.00,meteohub,2013-04-08 08:25:00,
2013-04-08 04:31:00,62.4,55.6,29.93,North,0,0.0,0.0,45,0.00,,,0.00,meteohub,2013-04-08 08:31:00,
2013-04-08 04:36:00,62.2,54.9,29.93,North,0,0.0,0.0,44,0.00,,,0.00,meteohub,2013-04-08 08:36:00,
2013-04-08 04:41:00,62.1,55.6,29.93,North,0,0.0,0.0,45,0.00,,,0.00,meteohub,2013-04-08 08:41:00,
2013-04-08 04:47:00,62.1,55.4,29.93,North,0,0.0,0.0,45,0.00,,,0.00,meteohub,2013-04-08 08:47:00,
2013-04-08 04:52:00,62.1,55.4,29.93,North,0,0.0,0.0,45,0.00,,,0.00,meteohub,2013-04-08 08:52:00,
2013-04-08 04:57:00,62.1,54.7,29.93,North,0,0.0,0.0,44,0.00,,,0.00,meteohub,2013-04-08 08:57:00,
2013-04-08 05:02:00,62.1,55.4,29.93,North,0,0.0,0.0,45,0.00,,,0.00,meteohub,2013-04-08 09:02:00,
2013-04-08 05:08:00,62.1,55.4,29.93,North,0,0.0,0.0,45,0.00,,,0.00,meteohub,2013-04-08 09:08:00,
2013-04-08 05:13:00,62.1,55.4,29.93,North,0,0.0,0.0,45,0.00,,,0.00,meteohub,2013-04-08 09:13:00,
2013-04-08 05:18:00,62.1,55.4,29.93,North,0,0.0,0.0,45,0.00,,,0.00,meteohub,2013-04-08 09:18:00,
2013-04-08 05:23:00,61.9,55.2,29.93,North,0,0.0,1.0,45,0.00,,,0.00,meteohub,2013-04-08 09:23:00,
2013-04-08 05:29:00,61.9,55.2,29.93,North,0,0.0,1.0,45,0.00,,,0.00,meteohub,2013-04-08 09:29:00,
2013-04-08 05:34:00,61.7,55.2,29.93,North,0,0.0,1.0,45,0.00,,,0.00,meteohub,2013-04-08 09:34:00,
2013-04-08 05:39:00,61.5,55.2,29.93,North,0,0.0,0.0,45,0.00,,,0.00,meteohub,2013-04-08 09:39:00,
2013-04-08 05:44:00,61.5,55.2,29.93,North,0,0.0,0.0,45,0.00,,,0.00,meteohub,2013-04-08 09:44:00,
2013-04-08 05:50:00,61.7,55.0,29.94,North,0,0.0,0.0,45,0.00,,,0.00,meteohub,2013-04-08 09:50:00,
2013-04-08 05:55:00,61.5,55.0,29.94,North,0,0.0,0.0,45,0.00,,,0.00,meteohub,2013-04-08 09:55:00,
2013-04-08 06:00:00,61.3,55.0,29.93,North,0,0.0,0.0,45,0.00,,,0.00,meteohub,2013-04-08 10:00:00,
2013-04-08 06:05:00,61.3,55.0,29.94,North,0,0.0,0.0,45,0.00,,,0.00,meteohub,2013-04-08 10:05:00,
2013-04-08 06:11:00,61.3,55.0,29.94,North,0,0.0,0.0,45,0.00,,,0.00,meteohub,2013-04-08 10:11:00,
2013-04-08 06:16:00,61.3,54.9,29.94,North,0,0.0,0.0,45,0.00,,,0.00,meteohub,2013-04-08 10:16:00,
2013-04-08 06:21:00,61.3,54.9,29.94,North,0,0.0,1.0,45,0.00,,,0.00,meteohub,2013-04-08 10:21:00,
2013-04-08 06:26:00,61.3,54.9,29.94,North,0,1.0,1.0,45,0.00,,,0.00,meteohub,2013-04-08 10:26:00,
2013-04-08 06:31:00,61.2,54.9,29.95,North,0,0.0,1.0,45,0.00,,,0.00,meteohub,2013-04-08 10:31:00,
2013-04-08 06:37:00,61.3,54.9,29.95,North,0,0.0,1.0,45,0.00,,,0.00,meteohub,2013-04-08 10:37:00,
2013-04-08 06:42:00,61.2,54.9,29.95,North,0,0.0,1.0,45,0.00,,,0.00,meteohub,2013-04-08 10:42:00,
2013-04-08 06:47:00,61.2,54.7,29.96,North,0,0.0,1.0,45,0.00,,,0.00,meteohub,2013-04-08 10:47:00,
2013-04-08 06:52:00,61.3,54.7,29.95,North,0,1.0,1.0,45,0.00,,,0.00,meteohub,2013-04-08 10:52:00,
2013-04-08 06:57:00,61.3,54.7,29.95,North,0,1.0,1.0,45,0.00,,,0.00,meteohub,2013-04-08 10:57:00,
2013-04-08 07:02:00,61.5,54.7,29.96,North,0,0.0,1.0,45,0.00,,,0.00,meteohub,2013-04-08 11:02:00,
2013-04-08 07:07:00,61.3,54.7,29.96,North,0,0.0,1.0,45,0.00,,,0.00,meteohub,2013-04-08 11:07:00,
2013-04-08 07:12:00,61.3,54.7,29.96,North,0,0.0,1.0,45,0.00,,,0.00,meteohub,2013-04-08 11:12:00,
2013-04-08 07:17:00,61.7,54.5,29.96,North,0,1.0,1.0,45,0.00,,,0.00,meteohub,2013-04-08 11:17:00,
2013-04-08 07:22:00,62.1,54.5,29.96,North,0,0.0,1.0,45,0.00,,,0.00,meteohub,2013-04-08 11:22:00,
2013-04-08 07:27:00,63.0,54.5,29.96,North,0,0.0,1.0,45,0.00,,,0.00,meteohub,2013-04-08 11:27:00,
2013-04-08 07:32:00,63.5,54.5,29.96,North,0,1.0,1.0,45,0.00,,,0.00,meteohub,2013-04-08 11:32:00,
2013-04-08 07:37:00,64.2,54.5,29.96,North,0,0.0,1.0,45,0.00,,,0.00,meteohub,2013-04-08 11:37:00,
2013-04-08 07:42:00,65.3,54.5,29.97,North,0,0.0,1.0,45,0.00,,,0.00,meteohub,2013-04-08 11:42:00,
2013-04-08 07:47:00,66.6,54.5,29.96,North,0,0.0,1.0,45,0.00,,,0.00,meteohub,2013-04-08 11:47:00,
2013-04-08 07:52:00,68.0,54.3,29.97,North,0,0.0,1.0,45,0.00,,,0.00,meteohub,2013-04-08 11:52:00,
2013-04-08 07:57:00,69.1,54.3,29.97,North,0,0.0,1.0,45,0.00,,,0.00,meteohub,2013-04-08 11:57:00,
2013-04-08 08:03:00,70.3,54.3,29.97,North,0,0.0,1.0,45,0.00,,,0.00,meteohub,2013-04-08 12:03:00,
2013-04-08 08:08:00,72.3,54.3,29.98,North,0,0.0,1.0,45,0.00,,,0.00,meteohub,2013-04-08 12:08:00,
2013-04-08 08:13:00,74.3,54.3,29.98,North,0,0.0,1.0,45,0.00,,,0.00,meteohub,2013-04-08 12:13:00,
2013-04-08 08:18:00,76.1,54.3,29.98,North,0,0.0,0.0,45,0.00,,,0.00,meteohub,2013-04-08 12:18:00,
2013-04-08 08:23:00,77.9,54.1,29.98,North,0,0.0,0.0,45,0.00,,,0.00,meteohub,2013-04-08 12:23:00,
2013-04-08 08:28:00,79.3,54.1,29.98,East,90,1.0,0.0,45,0.00,,,0.00,meteohub,2013-04-08 12:28:00,
2013-04-08 08:34:00,80.4,54.3,29.98,East,90,0.0,1.0,45,0.00,,,0.00,meteohub,2013-04-08 12:34:00,
2013-04-08 08:39:00,81.1,54.5,29.98,South,180,1.0,1.0,45,0.00,,,0.00,meteohub,2013-04-08 12:39:00,
2013-04-08 08:44:00,81.1,54.7,29.98,East,90,2.0,2.0,45,0.00,,,0.00,meteohub,2013-04-08 12:44:00,
2013-04-08 08:49:00,80.1,54.9,29.99,SE,135,2.0,2.0,45,0.00,,,0.00,meteohub,2013-04-08 12:49:00,
2013-04-08 08:55:00,80.1,54.3,29.99,SE,135,1.0,2.0,44,0.00,,,0.00,meteohub,2013-04-08 12:55:00,
2013-04-08 09:00:00,80.1,55.0,29.98,East,90,3.0,3.0,45,0.00,,,0.00,meteohub,2013-04-08 13:00:00,
2013-04-08 09:05:00,79.3,54.7,29.99,NE,45,4.0,5.0,44,0.00,,,0.00,meteohub,2013-04-08 13:05:00,
2013-04-08 09:10:00,79.3,54.9,29.99,NE,45,3.0,5.0,44,0.00,,,0.00,meteohub,2013-04-08 13:10:00,
2013-04-08 09:15:00,78.8,54.9,29.99,East,90,8.0,9.0,44,0.00,,,0.00,meteohub,2013-04-08 13:15:00,
2013-04-08 09:20:00,78.8,55.0,29.99,East,90,8.0,9.0,44,0.00,,,0.00,meteohub,2013-04-08 13:20:00,
2013-04-08 09:25:00,78.3,55.0,29.99,NE,45,4.0,9.0,44,0.00,,,0.00,meteohub,2013-04-08 13:25:00,
2013-04-08 09:31:00,78.8,55.2,29.99,East,90,4.0,9.0,44,0.00,,,0.00,meteohub,2013-04-08 13:31:00,
2013-04-08 09:36:00,79.0,54.5,29.99,NE,45,6.0,9.0,43,0.00,,,0.00,meteohub,2013-04-08 13:36:00,
2013-04-08 09:42:00,79.3,54.7,29.99,NE,45,6.0,8.0,43,0.00,,,0.00,meteohub,2013-04-08 13:42:00,
2013-04-08 09:47:00,78.8,54.7,29.99,East,90,7.0,8.0,43,0.00,,,0.00,meteohub,2013-04-08 13:47:00,
2013-04-08 09:52:00,79.2,54.7,29.99,East,90,4.0,8.0,43,0.00,,,0.00,meteohub,2013-04-08 13:52:00,
2013-04-08 09:57:00,79.3,54.7,29.99,East,90,8.0,8.0,43,0.00,,,0.00,meteohub,2013-04-08 13:57:00,
2013-04-08 10:02:00,78.1,54.7,30.00,East,90,8.0,9.0,43,0.00,,,0.00,meteohub,2013-04-08 14:02:00,
2013-04-08 10:07:00,78.3,54.7,30.00,East,90,8.0,9.0,43,0.00,,,0.00,meteohub,2013-04-08 14:07:00,
2013-04-08 10:12:00,79.2,54.7,30.00,South,180,2.0,9.0,43,0.00,,,0.00,meteohub,2013-04-08 14:12:00,
2013-04-08 10:17:00,80.1,54.5,30.00,East,90,9.0,9.0,43,0.00,,,0.00,meteohub,2013-04-08 14:17:00,
2013-04-08 10:22:00,79.9,54.5,30.00,East,90,7.0,9.0,43,0.00,,,0.00,meteohub,2013-04-08 14:22:00,
2013-04-08 10:27:00,79.3,54.5,30.00,East,90,8.0,9.0,43,0.00,,,0.00,meteohub,2013-04-08 14:27:00,
2013-04-08 10:32:00,78.4,54.5,30.00,East,90,3.0,9.0,43,0.00,,,0.00,meteohub,2013-04-08 14:32:00,
2013-04-08 10:37:00,79.9,54.5,30.00,NE,45,2.0,9.0,43,0.00,,,0.00,meteohub,2013-04-08 14:37:00,
2013-04-08 10:42:00,81.0,54.5,30.00,East,90,8.0,9.0,43,0.00,,,0.00,meteohub,2013-04-08 14:42:00,
2013-04-08 10:47:00,80.2,54.5,30.01,East,90,6.0,10.0,43,0.00,,,0.00,meteohub,2013-04-08 14:47:00,
2013-04-08 10:53:00,79.9,54.5,30.01,East,90,6.0,10.0,43,0.00,,,0.00,meteohub,2013-04-08 14:53:00,
2013-04-08 10:58:00,81.3,55.6,30.01,East,90,8.0,10.0,45,0.00,,,0.00,meteohub,2013-04-08 14:58:00,
2013-04-08 11:03:00,80.6,55.0,30.01,SE,135,4.0,8.0,44,0.00,,,0.00,meteohub,2013-04-08 15:03:00,
2013-04-08 11:08:00,80.2,55.2,30.01,East,90,4.0,10.0,44,0.00,,,0.00,meteohub,2013-04-08 15:08:00,
2013-04-08 11:13:00,80.8,55.2,30.01,South,180,3.0,10.0,44,0.00,,,0.00,meteohub,2013-04-08 15:13:00,
2013-04-08 11:18:00,79.7,55.4,30.01,East,90,8.0,10.0,44,0.00,,,0.00,meteohub,2013-04-08 15:18:00,
2013-04-08 11:24:00,78.8,55.4,30.01,East,90,6.0,8.0,44,0.00,,,0.00,meteohub,2013-04-08 15:24:00,
2013-04-08 11:29:00,77.9,55.6,30.01,SE,135,8.0,8.0,44,0.00,,,0.00,meteohub,2013-04-08 15:29:00,
2013-04-08 11:35:00,77.7,55.6,30.01,East,90,4.0,8.0,44,0.00,,,0.00,meteohub,2013-04-08 15:35:00,
2013-04-08 11:40:00,79.3,54.9,30.01,East,90,4.0,10.0,43,0.00,,,0.00,meteohub,2013-04-08 15:40:00,
2013-04-08 11:45:00,79.3,54.9,30.01,East,90,11.0,11.0,43,0.00,,,0.00,meteohub,2013-04-08 15:45:00,
2013-04-08 11:50:00,78.6,54.9,30.01,East,90,11.0,15.0,43,0.00,,,0.00,meteohub,2013-04-08 15:50:00,
2013-04-08 11:55:00,79.2,54.9,30.01,East,90,9.0,15.0,43,0.00,,,0.00,meteohub,2013-04-08 15:55:00,
2013-04-08 12:01:00,80.2,54.9,30.01,East,90,9.0,11.0,43,0.00,,,0.00,meteohub,2013-04-08 16:01:00,
2013-04-08 12:07:00,80.1,54.7,30.01,SE,135,10.0,11.0,43,0.00,,,0.00,meteohub,2013-04-08 16:07:00,
2013-04-08 12:12:00,79.9,54.7,30.01,SE,135,7.0,11.0,43,0.00,,,0.00,meteohub,2013-04-08 16:12:00,
2013-04-08 12:17:00,79.5,54.7,30.01,East,90,10.0,11.0,43,0.00,,,0.00,meteohub,2013-04-08 16:17:00,
2013-04-08 12:22:00,80.1,54.5,30.00,East,90,10.0,11.0,43,0.00,,,0.00,meteohub,2013-04-08 16:22:00,
2013-04-08 12:27:00,79.9,54.5,30.00,East,90,11.0,11.0,43,0.00,,,0.00,meteohub,2013-04-08 16:27:00,
2013-04-08 12:32:00,80.2,55.4,30.01,SE,135,6.0,11.0,44,0.00,,,0.00,meteohub,2013-04-08 16:32:00,
2013-04-08 12:37:00,80.2,55.6,30.00,East,90,7.0,13.0,44,0.00,,,0.00,meteohub,2013-04-08 16:37:00,
2013-04-08 12:42:00,80.6,55.2,30.00,East,90,11.0,13.0,43,0.00,,,0.00,meteohub,2013-04-08 16:42:00,
2013-04-08 12:47:00,80.2,55.4,30.00,East,90,5.0,13.0,43,0.00,,,0.00,meteohub,2013-04-08 16:47:00,
2013-04-08 12:52:00,81.1,55.4,30.00,East,90,5.0,11.0,43,0.00,,,0.00,meteohub,2013-04-08 16:52:00,
2013-04-08 12:57:00,81.5,55.6,30.00,East,90,8.0,11.0,43,0.00,,,0.00,meteohub,2013-04-08 16:57:00,
2013-04-08 13:02:00,79.7,55.6,30.01,ESE,113,10.0,11.0,43,0.00,,,0.00,meteohub,2013-04-08 17:02:00,
2013-04-08 13:07:00,79.0,55.8,30.00,East,90,9.0,13.0,43,0.00,,,0.00,meteohub,2013-04-08 17:07:00,
2013-04-08 13:12:00,80.8,55.9,30.00,East,90,3.0,13.0,43,0.00,,,0.00,meteohub,2013-04-08 17:12:00,
2013-04-08 13:17:00,81.7,55.9,29.99,East,90,8.0,13.0,43,0.00,,,0.00,meteohub,2013-04-08 17:17:00,
2013-04-08 13:22:00,81.5,56.1,29.99,East,90,12.0,12.0,43,0.00,,,0.00,meteohub,2013-04-08 17:22:00,
2013-04-08 13:27:00,80.6,56.1,29.99,East,90,11.0,13.0,43,0.00,,,0.00,meteohub,2013-04-08 17:27:00,
2013-04-08 13:32:00,81.3,56.1,29.99,North,0,5.0,13.0,43,0.00,,,0.00,meteohub,2013-04-08 17:32:00,
2013-04-08 13:38:00,81.7,56.1,29.98,East,90,10.0,13.0,43,0.00,,,0.00,meteohub,2013-04-08 17:38:00,
2013-04-08 13:43:00,81.9,56.3,29.98,NE,45,9.0,11.0,43,0.00,,,0.00,meteohub,2013-04-08 17:43:00,
2013-04-08 13:48:00,82.0,56.3,29.98,SE,135,8.0,12.0,43,0.00,,,0.00,meteohub,2013-04-08 17:48:00,
2013-04-08 13:53:00,81.3,56.5,29.97,East,90,5.0,12.0,43,0.00,,,0.00,meteohub,2013-04-08 17:53:00,
2013-04-08 13:59:00,81.5,56.5,29.97,East,90,5.0,12.0,43,0.00,,,0.00,meteohub,2013-04-08 17:59:00,
2013-04-08 14:04:00,80.8,56.5,29.97,East,90,9.0,11.0,43,0.00,,,0.00,meteohub,2013-04-08 18:04:00,
2013-04-08 14:10:00,80.1,56.7,29.97,East,90,9.0,11.0,43,0.00,,,0.00,meteohub,2013-04-08 18:10:00,
2013-04-08 14:15:00,80.2,56.7,29.96,East,90,9.0,13.0,43,0.00,,,0.00,meteohub,2013-04-08 18:15:00,
2013-04-08 14:20:00,81.0,56.7,29.97,South,180,8.0,13.0,43,0.00,,,0.00,meteohub,2013-04-08 18:20:00,
2013-04-08 14:25:00,81.5,56.7,29.96,NE,45,10.0,13.0,43,0.00,,,0.00,meteohub,2013-04-08 18:25:00,
2013-04-08 14:30:00,81.5,56.8,29.96,East,90,8.0,11.0,43,0.00,,,0.00,meteohub,2013-04-08 18:30:00,
2013-04-08 14:35:00,82.0,56.8,29.96,East,90,7.0,11.0,43,0.00,,,0.00,meteohub,2013-04-08 18:35:00,
2013-04-08 14:40:00,81.7,56.8,29.96,East,90,7.0,13.0,43,0.00,,,0.00,meteohub,2013-04-08 18:40:00,
2013-04-08 14:45:00,81.0,56.8,29.96,East,90,11.0,13.0,43,0.00,,,0.00,meteohub,2013-04-08 18:45:00,
2013-04-08 14:51:00,81.0,56.8,29.96,East,90,2.0,14.0,43,0.00,,,0.00,meteohub,2013-04-08 18:51:00,
2013-04-08 14:57:00,83.1,56.8,29.96,SE,135,9.0,14.0,43,0.00,,,0.00,meteohub,2013-04-08 18:57:00,
2013-04-08 15:02:00,83.3,56.8,29.96,NE,45,6.0,11.0,43,0.00,,,0.00,meteohub,2013-04-08 19:02:00,
2013-04-08 15:07:00,82.9,56.8,29.95,East,90,7.0,11.0,43,0.00,,,0.00,meteohub,2013-04-08 19:07:00,
2013-04-08 15:12:00,82.4,56.8,29.94,East,90,8.0,11.0,43,0.00,,,0.00,meteohub,2013-04-08 19:12:00,
2013-04-08 15:17:00,82.4,56.8,29.95,South,180,4.0,11.0,43,0.00,,,0.00,meteohub,2013-04-08 19:17:00,
2013-04-08 15:23:00,82.6,56.3,29.95,East,90,11.0,11.0,42,0.00,,,0.00,meteohub,2013-04-08 19:23:00,
2013-04-08 15:28:00,81.7,56.1,29.95,East,90,12.0,12.0,42,0.00,,,0.00,meteohub,2013-04-08 19:28:00,
2013-04-08 15:33:00,81.1,56.3,29.95,NE,45,7.0,12.0,42,0.00,,,0.00,meteohub,2013-04-08 19:33:00,
2013-04-08 15:39:00,80.6,56.3,29.95,East,90,10.0,14.0,42,0.00,,,0.00,meteohub,2013-04-08 19:39:00,
2013-04-08 15:44:00,80.8,54.9,29.95,SE,135,8.0,14.0,40,0.00,,,0.00,meteohub,2013-04-08 19:44:00,
2013-04-08 15:49:00,80.8,55.6,29.95,East,90,8.0,11.0,41,0.00,,,0.00,meteohub,2013-04-08 19:49:00,
2013-04-08 15:54:00,81.1,55.6,29.95,East,90,9.0,11.0,41,0.00,,,0.00,meteohub,2013-04-08 19:54:00,
2013-04-08 15:59:00,81.5,56.3,29.95,NE,45,10.0,11.0,42,0.00,,,0.00,meteohub,2013-04-08 19:59:00,
2013-04-08 16:05:00,82.4,55.0,29.94,East,90,9.0,11.0,40,0.00,,,0.00,meteohub,2013-04-08 20:05:00,
2013-04-08 16:10:00,82.0,54.3,29.95,East,90,8.0,10.0,39,0.00,,,0.00,meteohub,2013-04-08 20:10:00,
2013-04-08 16:15:00,81.5,55.0,29.94,SE,135,8.0,10.0,40,0.00,,,0.00,meteohub,2013-04-08 20:15:00,
2013-04-08 16:20:00,81.5,55.2,29.94,East,90,8.0,11.0,40,0.00,,,0.00,meteohub,2013-04-08 20:20:00,
2013-04-08 16:25:00,81.7,55.4,29.94,South,180,6.0,11.0,40,0.00,,,0.00,meteohub,2013-04-08 20:25:00,
2013-04-08 16:30:00,81.7,56.1,29.94,East,90,8.0,11.0,41,0.00,,,0.00,meteohub,2013-04-08 20:30:00,
2013-04-08 16:35:00,81.9,54.1,29.95,NW,315,4.0,10.0,38,0.00,,,0.00,meteohub,2013-04-08 20:35:00,
2013-04-08 16:42:00,81.5,54.0,29.94,NE,45,6.0,11.0,38,0.00,,,0.00,meteohub,2013-04-08 20:42:00,
2013-04-08 16:47:00,80.6,54.7,29.94,East,90,4.0,11.0,39,0.00,,,0.00,meteohub,2013-04-08 20:47:00,
2013-04-08 16:52:00,81.0,54.9,29.94,East,90,9.0,11.0,39,0.00,,,0.00,meteohub,2013-04-08 20:52:00,
2013-04-08 16:57:00,81.1,55.6,29.94,North,0,2.0,11.0,40,0.00,,,0.00,meteohub,2013-04-08 20:57:00,
2013-04-08 17:02:00,80.6,54.9,29.94,East,90,8.0,11.0,39,0.00,,,0.00,meteohub,2013-04-08 21:02:00,
2013-04-08 17:07:00,81.0,54.1,29.94,NE,45,8.0,11.0,38,0.00,,,0.00,meteohub,2013-04-08 21:07:00,
2013-04-08 17:12:00,80.4,54.0,29.94,East,90,10.0,11.0,38,0.00,,,0.00,meteohub,2013-04-08 21:12:00,
2013-04-08 17:17:00,80.1,54.0,29.94,East,90,8.0,11.0,38,0.00,,,0.00,meteohub,2013-04-08 21:17:00,
2013-04-08 17:22:00,80.8,54.7,29.94,East,90,11.0,12.0,39,0.00,,,0.00,meteohub,2013-04-08 21:22:00,
2013-04-08 17:27:00,80.6,54.7,29.94,East,90,8.0,12.0,39,0.00,,,0.00,meteohub,2013-04-08 21:27:00,
2013-04-08 17:32:00,80.2,54.0,29.94,East,90,8.0,12.0,38,0.00,,,0.00,meteohub,2013-04-08 21:32:00,
2013-04-08 17:37:00,80.4,53.2,29.94,East,90,5.0,12.0,37,0.00,,,0.00,meteohub,2013-04-08 21:37:00,
2013-04-08 17:42:00,80.8,53.1,29.94,SE,135,8.0,12.0,37,0.00,,,0.00,meteohub,2013-04-08 21:42:00,
2013-04-08 17:47:00,80.4,53.8,29.94,ESE,113,14.0,14.0,38,0.00,,,0.00,meteohub,2013-04-08 21:47:00,
2013-04-08 17:53:00,81.3,54.7,29.94,SE,135,8.0,14.0,39,0.00,,,0.00,meteohub,2013-04-08 21:53:00,
2013-04-08 17:58:00,80.6,53.2,29.94,East,90,6.0,14.0,37,0.00,,,0.00,meteohub,2013-04-08 21:58:00,
2013-04-08 18:03:00,80.6,52.3,29.94,NE,45,3.0,14.0,36,0.00,,,0.00,meteohub,2013-04-08 22:03:00,
2013-04-08 18:09:00,81.7,52.9,29.94,East,90,7.0,11.0,37,0.00,,,0.00,meteohub,2013-04-08 22:09:00,
2013-04-08 18:14:00,81.3,53.4,29.94,East,90,4.0,9.0,38,0.00,,,0.00,meteohub,2013-04-08 22:14:00,
2013-04-08 18:19:00,81.3,53.4,29.95,East,90,7.0,9.0,38,0.00,,,0.00,meteohub,2013-04-08 22:19:00,
2013-04-08 18:24:00,80.2,52.9,29.95,East,90,8.0,9.0,37,0.00,,,0.00,meteohub,2013-04-08 22:24:00,
2013-04-08 18:30:00,79.5,51.3,29.95,SE,135,8.0,12.0,35,0.00,,,0.00,meteohub,2013-04-08 22:30:00,
2013-04-08 18:35:00,78.6,52.0,29.95,SE,135,9.0,12.0,36,0.00,,,0.00,meteohub,2013-04-08 22:35:00,
2013-04-08 18:40:00,77.2,52.5,29.96,East,90,10.0,11.0,37,0.00,,,0.00,meteohub,2013-04-08 22:40:00,
2013-04-08 18:47:00,76.6,53.2,29.95,East,90,10.0,12.0,38,0.00,,,0.00,meteohub,2013-04-08 22:47:00,
2013-04-08 18:52:00,76.3,52.5,29.96,East,90,4.0,12.0,37,0.00,,,0.00,meteohub,2013-04-08 22:52:00,
2013-04-08 18:57:00,75.9,51.6,29.96,ENE,68,8.0,12.0,36,0.00,,,0.00,meteohub,2013-04-08 22:57:00,
2013-04-08 19:02:00,75.6,51.4,29.96,SE,135,10.0,15.0,36,0.00,,,0.00,meteohub,2013-04-08 23:02:00,
2013-04-08 19:07:00,75.4,52.2,29.96,East,90,5.0,15.0,37,0.00,,,0.00,meteohub,2013-04-08 23:07:00,
2013-04-08 19:12:00,75.2,52.9,29.96,East,90,6.0,15.0,38,0.00,,,0.00,meteohub,2013-04-08 23:12:00,
2013-04-08 19:17:00,75.0,52.9,29.97,North,0,6.0,13.0,38,0.00,,,0.00,meteohub,2013-04-08 23:17:00,
2013-04-08 19:22:00,75.0,51.3,29.97,East,90,7.0,8.0,36,0.00,,,0.00,meteohub,2013-04-08 23:22:00,
2013-04-08 19:27:00,74.8,51.1,29.97,NE,45,5.0,8.0,36,0.00,,,0.00,meteohub,2013-04-08 23:27:00,
2013-04-08 19:32:00,74.7,51.6,29.97,East,90,9.0,10.0,37,0.00,,,0.00,meteohub,2013-04-08 23:32:00,
2013-04-08 19:37:00,74.5,51.6,29.97,East,90,11.0,11.0,37,0.00,,,0.00,meteohub,2013-04-08 23:37:00,
2013-04-08 19:42:00,74.3,52.3,29.97,East,90,2.0,11.0,38,0.00,,,0.00,meteohub,2013-04-08 23:42:00,
2013-04-08 19:47:00,74.1,52.3,29.97,East,90,6.0,11.0,38,0.00,,,0.00,meteohub,2013-04-08 23:47:00,
2013-04-08 19:52:00,73.9,51.6,29.96,East,90,5.0,11.0,37,0.00,,,0.00,meteohub,2013-04-08 23:52:00,
2013-04-08 19:58:00,73.8,49.8,29.97,East,90,4.0,8.0,35,0.00,,,0.00,meteohub,2013-04-08 23:58:00,
2013-04-08 20:03:00,73.8,51.3,29.97,East,90,4.0,9.0,37,0.00,,,0.00,meteohub,2013-04-09 00:03:00,
2013-04-08 20:08:00,73.8,51.1,29.97,NE,45,6.0,9.0,37,0.00,,,0.00,meteohub,2013-04-09 00:08:00,
2013-04-08 20:13:00,73.6,51.8,29.96,East,90,8.0,9.0,38,0.00,,,0.00,meteohub,2013-04-09 00:13:00,
2013-04-08 20:18:00,73.6,52.0,29.96,NE,45,7.0,7.0,38,0.00,,,0.00,meteohub,2013-04-09 00:18:00,
2013-04-08 20:24:00,73.6,52.7,29.97,NE,45,4.0,8.0,39,0.00,,,0.00,meteohub,2013-04-09 00:24:00,
2013-04-08 20:29:00,73.4,52.2,29.97,East,90,4.0,8.0,38,0.00,,,0.00,meteohub,2013-04-09 00:29:00,
2013-04-08 20:34:00,73.6,51.4,29.97,East,90,3.0,8.0,37,0.00,,,0.00,meteohub,2013-04-09 00:34:00,
2013-04-08 20:39:00,73.4,51.4,29.97,East,90,4.0,9.0,37,0.00,,,0.00,meteohub,2013-04-09 00:39:00,
2013-04-08 20:44:00,73.2,51.4,29.97,NE,45,7.0,9.0,37,0.00,,,0.00,meteohub,2013-04-09 00:44:00,
2013-04-08 20:50:00,73.2,52.3,29.97,East,90,4.0,9.0,38,0.00,,,0.00,meteohub,2013-04-09 00:50:00,
2013-04-08 20:55:00,73.0,52.3,29.97,NE,45,2.0,7.0,38,0.00,,,0.00,meteohub,2013-04-09 00:55:00,
2013-04-08 21:00:00,73.0,53.2,29.97,East,90,2.0,4.0,39,0.00,,,0.00,meteohub,2013-04-09 01:00:00,
2013-04-08 21:05:00,72.9,52.7,29.98,East,90,2.0,4.0,38,0.00,,,0.00,meteohub,2013-04-09 01:05:00,
2013-04-08 21:11:00,72.7,52.0,29.98,East,90,2.0,4.0,37,0.00,,,0.00,meteohub,2013-04-09 01:11:00,
2013-04-08 21:16:00,72.7,51.3,29.99,East,90,2.0,3.0,36,0.00,,,0.00,meteohub,2013-04-09 01:16:00,
2013-04-08 21:22:00,72.7,52.2,29.98,East,90,3.0,3.0,37,0.00,,,0.00,meteohub,2013-04-09 01:22:00,
2013-04-08 21:27:00,72.5,52.2,29.99,East,90,2.0,3.0,37,0.00,,,0.00,meteohub,2013-04-09 01:27:00,
2013-04-08 21:32:00,72.5,53.1,29.99,East,90,3.0,4.0,38,0.00,,,0.00,meteohub,2013-04-09 01:32:00,
2013-04-08 21:37:00,72.7,53.1,29.99,East,90,5.0,5.0,38,0.00,,,0.00,meteohub,2013-04-09 01:37:00,
2013-04-08 21:42:00,72.9,52.5,29.99,SE,135,4.0,5.0,37,0.00,,,0.00,meteohub,2013-04-09 01:42:00,
2013-04-08 21:47:00,72.9,51.3,29.99,East,90,4.0,5.0,35,0.00,,,0.00,meteohub,2013-04-09 01:47:00,
2013-04-08 21:52:00,72.9,51.3,29.99,East,90,3.0,7.0,35,0.00,,,0.00,meteohub,2013-04-09 01:52:00,
2013-04-08 21:57:00,72.9,52.0,29.99,ENE,68,6.0,7.0,36,0.00,,,0.00,meteohub,2013-04-09 01:57:00,
2013-04-08 22:02:00,73.0,52.0,30.00,East,90,4.0,8.0,36,0.00,,,0.00,meteohub,2013-04-09 02:02:00,
2013-04-08 22:07:00,72.9,52.9,29.99,East,90,4.0,8.0,37,0.00,,,0.00,meteohub,2013-04-09 02:07:00,
2013-04-08 22:12:00,72.9,52.9,30.00,East,90,4.0,8.0,37,0.00,,,0.00,meteohub,2013-04-09 02:12:00,
2013-04-08 22:17:00,72.5,52.9,30.00,East,90,4.0,5.0,37,0.00,,,0.00,meteohub,2013-04-09 02:17:00,
2013-04-08 22:22:00,72.5,52.2,30.00,East,90,2.0,5.0,36,0.00,,,0.00,meteohub,2013-04-09 02:22:00,
2013-04-08 22:27:00,72.5,51.4,30.00,East,90,2.0,4.0,35,0.00,,,0.00,meteohub,2013-04-09 02:27:00,
2013-04-08 22:33:00,72.3,51.3,30.00,East,90,4.0,5.0,35,0.00,,,0.00,meteohub,2013-04-09 02:33:00,
2013-04-08 22:38:00,72.3,52.0,30.00,East,90,4.0,5.0,36,0.00,,,0.00,meteohub,2013-04-09 02:38:00,
2013-04-08 22:43:00,72.3,52.0,30.00,East,90,2.0,5.0,36,0.00,,,0.00,meteohub,2013-04-09 02:43:00,
2013-04-08 22:49:00,72.1,52.9,30.00,East,90,2.0,4.0,37,0.00,,,0.00,meteohub,2013-04-09 02:49:00,
2013-04-08 22:54:00,72.0,52.9,30.00,East,90,2.0,6.0,37,0.00,,,0.00,meteohub,2013-04-09 02:54:00,
2013-04-08 22:59:00,71.8,53.1,30.00,East,90,2.0,6.0,37,0.00,,,0.00,meteohub,2013-04-09 02:59:00,
2013-04-08 23:04:00,72.0,53.1,30.00,East,90,3.0,6.0,37,0.00,,,0.00,meteohub,2013-04-09 03:04:00,
2013-04-08 23:10:00,72.0,50.5,30.00,East,90,2.0,4.0,34,0.00,,,0.00,meteohub,2013-04-09 03:10:00,
2013-04-08 23:15:00,72.0,50.2,30.00,East,90,1.0,4.0,34,0.00,,,0.00,meteohub,2013-04-09 03:15:00,
2013-04-08 23:20:00,72.0,50.9,30.00,East,90,2.0,3.0,35,0.00,,,0.00,meteohub,2013-04-09 03:20:00,
2013-04-08 23:25:00,72.1,51.8,30.00,East,90,3.0,4.0,36,0.00,,,0.00,meteohub,2013-04-09 03:25:00,
2013-04-08 23:31:00,72.3,52.5,30.01,East,90,2.0,5.0,37,0.00,,,0.00,meteohub,2013-04-09 03:31:00,
2013-04-08 23:37:00,72.5,52.7,30.01,East,90,3.0,5.0,37,0.00,,,0.00,meteohub,2013-04-09 03:37:00,
2013-04-08 23:42:00,72.3,52.7,30.01,East,90,3.0,5.0,37,0.00,,,0.00,meteohub,2013-04-09 03:42:00,
2013-04-08 23:47:00,72.3,52.9,30.00,East,90,3.0,3.0,37,0.00,,,0.00,meteohub,2013-04-09 03:47:00,
2013-04-08 23:52:00,72.3,52.9,30.00,East,90,2.0,4.0,37,0.00,,,0.00,meteohub,2013-04-09 03:52:00,
2013-04-08 23:57:00,72.3,52.7,30.00,East,90,3.0,4.0,37,0.00,,,0.00,meteohub,2013-04-09 03:57:00,